Location: State Line Observation Field
(36.5320°N, 77.5360°W)
Time: 05:16:36
(UTC-05:00)

LightSail 2 - Pass Details

Date: 16 November 2019
Orbit: 695 x 731 km, 24.0° (Epoch: 05 December)

Event Time Altitude Azimuth Distance (km) Brightness Sun altitude
Exits shadow 03:55:56 15° 147° (SSE) 1,887 7.6 -34.6°
Drops below altitude 10° 03:57:17 10° 135° (SE) 2,207 8.1 -34.4°
Sets 04:00:18 0° 118° (ESE) 3,132 9.3 -33.8°
